Flag for Estonia Weather past 2 weeks in Narva, Estonia

Now
36 °F

Overcast.


Feels Like: 33 °F
Forecast: 26 / 32 °F
Wind: 3 mph from Northeast

Location: Narva

Current Time: Oct 21, 2014 at 4:05:07 AM

Latest Report: Oct 21, 2014 at 3:00 AM


Visibility: 13 mi

Pressure: 29.53 "Hg

Humidity: 93%

Dew point: 34 °F

Location of NarvaLocation

Historic Weather in Narva — Graph

°F

Narva temperature yesterday

Maximum temperature yesterday: 51 °F (at 2:00 PM)
Minimum temperature yesterday: 37 °F (at 11:00 PM)
Average temperature yesterday: 46 °F

Past Weeks' High & Low Weather Summary

 TemperatureHumidityPressure
High57 °F (Oct 11, 1:00 PM)100% (Oct 10, 5:00 AM)30.74 "Hg (Oct 10, 5:00 AM)
Low23 °F (Oct 17, 5:00 AM)54% (Oct 16, 5:00 PM)29.29 "Hg (Oct 20, 8:00 AM)
Average42 °F86%30.02 "Hg
* Reported Oct 6 2:00 AM — Oct 21 2:00 AM, Narva, Weather by CustomWeather, © 2014

Note: Actual official high and low records may vary slightly from our data, if they occured in-between our weather recording intervals... More about our weather records

Advertising

Narva weather history for previous 24 hours

 ConditionsComfort  
Time TempWeatherWind HumidityBarometerVisibility
2:00 AM
Oct 21
36 °FLow clouds.5 mph94%29.50 "Hg12 mi
1:00 AM37 °FLight rain. Low clouds.5 mph94%29.47 "Hg10 mi
12:00 AM37 °FLow clouds.5 mph96%29.44 "Hg12 mi
11:00 PM
Oct 20
37 °FLow clouds.5 mph96%29.44 "Hg10 mi
10:00 PM38 °FLow clouds.5 mph97%29.41 "Hg4 mi
9:00 PM40 °FRain showers. Low clouds.5 mph98%29.38 "Hg1 mi
8:00 PM43 °FFog.3 mph98%29.35 "Hg6 mi
7:00 PM45 °FRain showers. Low clouds.3 mph99%29.35 "Hg2 mi
6:00 PM47 °FLow clouds.1 mph99%29.32 "Hg4 mi
5:00 PM47 °FRain showers. Low clouds.1 mph99%29.32 "Hg1 mi
4:00 PM47 °FRain showers. Low clouds.2 mph98%29.32 "Hg1 mi
3:00 PM49 °FFog.2 mph99%29.29 "Hg3 mi
2:00 PM51 °FLow clouds.1 mph93%29.29 "Hg12 mi
1:00 PM50 °FLow clouds.1 mph95%29.29 "Hg12 mi
12:00 PM50 °FLow clouds.1 mph100%29.29 "Hg9 mi
11:00 AM49 °FLow clouds.1 mph99%29.29 "Hg5 mi
10:00 AM49 °FDuststorm.1 mph100%29.29 "Hg1 mi
9:00 AM47 °FLow clouds.1 mph100%29.29 "Hg0 mi
8:00 AM47 °FDuststorm.1 mph99%29.29 "Hg0 mi
6:00 AM46 °FDuststorm.1 mph100%29.32 "Hg0 mi
5:00 AM46 °FRain showers. Overcast.2 mph99%29.32 "Hg0 mi
4:00 AM46 °FRain showers. Overcast.2 mph99%29.35 "Hg1 mi
Weather by CustomWeather, © 2014

See weather overviewHow to use our weather pages